| time (UTC) | temp F | wind direction | speed MPH | gust MPH | rain 1hr in | rain 24hr in | rain mn in | humidity % | barometer mb |
| 20260509183406 | 58 | 38 | 6.0 | 12.0 | 0.00 | 0.26 | 0.19 | 83 | 1008.8 |
| 20260509182405 | 58 | 27 | 5.0 | 9.0 | 0.00 | 0.26 | 0.19 | 83 | 1008.8 |
| 20260509181405 | 58 | 37 | 6.0 | 13.0 | 0.00 | 0.26 | 0.19 | 86 | 1008.8 |
| 20260509180905 | 58 | 39 | 3.0 | 7.0 | 0.00 | 0.26 | 0.19 | 87 | 1008.7 |
| 20260509180406 | 58 | 36 | 2.0 | 6.0 | 0.01 | 0.26 | 0.19 | 87 | 1008.7 |
| 20260509175905 | 58 | 48 | 0.0 | 1.0 | 0.01 | 0.26 | 0.19 | 88 | 1008.6 |
| 20260509175407 | 58 | 37 | 0.0 | 5.0 | 0.02 | 0.26 | 0.19 | 88 | 1008.6 |
| 20260509173405 | 57 | 85 | 1.0 | 3.0 | 0.06 | 0.26 | 0.19 | 87 | 1008.6 |
| 20260509172905 | 57 | 85 | 1.0 | 3.0 | 0.06 | 0.26 | 0.19 | 87 | 1008.4 |
| 20260509172405 | 57 | 85 | 0.0 | 1.0 | 0.06 | 0.26 | 0.19 | 88 | 1008.3 |
| 20260509171905 | 56 | 85 | 0.0 | 6.0 | 0.06 | 0.26 | 0.19 | 87 | 1008.2 |
| 20260509171405 | 56 | 110 | 0.0 | 5.0 | 0.06 | 0.26 | 0.19 | 87 | 1008.3 |
| 20260509170906 | 56 | 124 | 2.0 | 9.0 | 0.06 | 0.26 | 0.19 | 87 | 1008.3 |
| 20260509170406 | 57 | 123 | 2.0 | 6.0 | 0.05 | 0.25 | 0.18 | 86 | 1008.3 |
| 20260509165906 | 57 | 112 | 2.0 | 9.0 | 0.05 | 0.25 | 0.18 | 85 | 1008.5 |
| 20260509165405 | 57 | 150 | 2.0 | 9.0 | 0.03 | 0.24 | 0.17 | 85 | 1008.1 |
| 20260509164905 | 57 | 145 | 2.0 | 13.0 | 0.02 | 0.22 | 0.15 | 84 | 1008.2 |
| 20260509164405 | 58 | 124 | 3.0 | 12.0 | 0.01 | 0.21 | 0.14 | 83 | 1008.1 |
| 20260509163905 | 59 | 139 | 3.0 | 12.0 | 0.01 | 0.21 | 0.14 | 83 | 1008.1 |
| 20260509163405 | 60 | 104 | 5.0 | 13.0 | 0.00 | 0.20 | 0.13 | 82 | 1008.0 |
| 20260509162905 | 60 | 111 | 6.0 | 12.0 | 0.00 | 0.20 | 0.13 | 81 | 1007.8 |
| 20260509162406 | 61 | 93 | 5.0 | 16.0 | 0.00 | 0.20 | 0.13 | 80 | 1007.7 |
| 20260509161905 | 61 | 90 | 3.0 | 16.0 | 0.00 | 0.20 | 0.13 | 80 | 1007.7 |
| 20260509161405 | 61 | 75 | 3.0 | 10.0 | 0.00 | 0.20 | 0.13 | 80 | 1007.6 |
| 20260509160906 | 61 | 57 | 7.0 | 12.0 | 0.00 | 0.20 | 0.13 | 78 | 1007.4 |
| 20260509160405 | 62 | 84 | 8.0 | 15.0 | 0.00 | 0.20 | 0.13 | 78 | 1007.4 |
| 20260509155905 | 63 | 77 | 3.0 | 14.0 | 0.00 | 0.20 | 0.13 | 75 | 1007.1 |
| 20260509155405 | 63 | 74 | 5.0 | 13.0 | 0.00 | 0.20 | 0.13 | 72 | 1007.2 |
| 20260509154905 | 64 | 67 | 5.0 | 9.0 | 0.00 | 0.20 | 0.13 | 71 | 1007.0 |
| 20260509153905 | 64 | 86 | 6.0 | 14.0 | 0.00 | 0.20 | 0.13 | 70 | 1006.8 |
| 20260509153405 | 64 | 60 | 9.0 | 20.0 | 0.00 | 0.20 | 0.13 | 69 | 1006.6 |
| 20260509152405 | 64 | 45 | 10.0 | 20.0 | 0.00 | 0.20 | 0.13 | 68 | 1006.6 |
| 20260509151905 | 65 | 66 | 6.0 | 15.0 | 0.00 | 0.20 | 0.13 | 68 | 1006.5 |
| 20260509151406 | 65 | 54 | 7.0 | 18.0 | 0.00 | 0.20 | 0.13 | 66 | 1006.4 |
| 20260509150906 | 65 | 33 | 5.0 | 18.0 | 0.00 | 0.20 | 0.13 | 66 | 1006.4 |
| 20260509150405 | 65 | 67 | 9.0 | 21.0 | 0.00 | 0.20 | 0.13 | 65 | 1006.3 |
| 20260509145905 | 65 | 39 | 5.0 | 21.0 | 0.00 | 0.20 | 0.13 | 66 | 1006.3 |
| 20260509145405 | 65 | 53 | 7.0 | 16.0 | 0.00 | 0.20 | 0.13 | 65 | 1006.3 |
| 20260509144905 | 66 | 50 | 7.0 | 23.0 | 0.00 | 0.20 | 0.13 | 64 | 1006.2 |
| 20260509144406 | 66 | 46 | 11.0 | 23.0 | 0.00 | 0.20 | 0.13 | 61 | 1006.3 |
| 20260509143906 | 66 | 35 | 10.0 | 24.0 | 0.00 | 0.20 | 0.13 | 60 | 1006.3 |
| 20260509143405 | 66 | 68 | 9.0 | 22.0 | 0.00 | 0.20 | 0.13 | 62 | 1006.3 |
| 20260509142905 | 66 | 51 | 14.0 | 23.0 | 0.00 | 0.20 | 0.13 | 61 | 1006.3 |
| 20260509142405 | 66 | 58 | 10.0 | 24.0 | 0.00 | 0.20 | 0.13 | 60 | 1006.3 |
| 20260509141906 | 66 | 57 | 14.0 | 25.0 | 0.00 | 0.20 | 0.13 | 60 | 1006.3 |
| 20260509141405 | 67 | 34 | 16.0 | 25.0 | 0.00 | 0.20 | 0.13 | 59 | 1006.1 |
| 20260509140905 | 67 | 44 | 8.0 | 22.0 | 0.00 | 0.20 | 0.13 | 59 | 1006.0 |
| 20260509140405 | 67 | 29 | 9.0 | 22.0 | 0.00 | 0.20 | 0.13 | 57 | 1006.0 |
| 20260509135905 | 67 | 52 | 12.0 | 21.0 | 0.00 | 0.20 | 0.13 | 56 | 1006.0 |
| 20260509135405 | 68 | 43 | 10.0 | 21.0 | 0.00 | 0.20 | 0.13 | 57 | 1005.9 |
| 20260509134405 | 68 | 39 | 15.0 | 23.0 | 0.00 | 0.20 | 0.13 | 55 | 1005.9 |
| 20260509132405 | 68 | 67 | 10.0 | 22.0 | 0.00 | 0.20 | 0.13 | 60 | 1005.6 |
| 20260509131905 | 67 | 34 | 10.0 | 23.0 | 0.00 | 0.20 | 0.13 | 62 | 1005.6 |
| 20260509131405 | 68 | 54 | 12.0 | 23.0 | 0.00 | 0.20 | 0.13 | 63 | 1005.7 |
| 20260509130906 | 67 | 42 | 9.0 | 22.0 | 0.00 | 0.20 | 0.13 | 65 | 1005.7 |
| 20260509130405 | 67 | 32 | 13.0 | 22.0 | 0.00 | 0.20 | 0.13 | 65 | 1005.6 |
| 20260509125905 | 66 | 62 | 9.0 | 18.0 | 0.00 | 0.20 | 0.13 | 65 | 1005.6 |
| 20260509124905 | 66 | 40 | 10.0 | 20.0 | 0.00 | 0.20 | 0.13 | 67 | 1005.7 |
| 20260509124405 | 66 | 40 | 7.0 | 20.0 | 0.00 | 0.20 | 0.13 | 67 | 1005.7 |
| 20260509123905 | 65 | 61 | 12.0 | 20.0 | 0.00 | 0.20 | 0.13 | 68 | 1005.6 |
| 20260509123405 | 65 | 65 | 7.0 | 14.0 | 0.00 | 0.20 | 0.13 | 67 | 1005.7 |
| 20260509122905 | 65 | 25 | 14.0 | 21.0 | 0.00 | 0.20 | 0.13 | 65 | 1005.7 |
| 20260509122405 | 66 | 36 | 12.0 | 23.0 | 0.00 | 0.20 | 0.13 | 64 | 1005.6 |
| 20260509121906 | 66 | 39 | 12.0 | 21.0 | 0.00 | 0.20 | 0.13 | 64 | 1005.6 |
| 20260509121405 | 65 | 29 | 9.0 | 21.0 | 0.00 | 0.20 | 0.13 | 65 | 1005.7 |
| 20260509120905 | 65 | 46 | 14.0 | 28.0 | 0.00 | 0.20 | 0.13 | 64 | 1005.7 |
| 20260509120405 | 66 | 40 | 7.0 | 22.0 | 0.00 | 0.20 | 0.13 | 69 | 1005.6 |
| 20260509115905 | 65 | 54 | 8.0 | 23.0 | 0.00 | 0.20 | 0.13 | 70 | 1005.5 |
| 20260509115406 | 65 | 50 | 10.0 | 20.0 | 0.00 | 0.20 | 0.13 | 70 | 1005.5 |
| 20260509114405 | 65 | 59 | 9.0 | 20.0 | 0.00 | 0.20 | 0.13 | 68 | 1005.4 |
| 20260509113905 | 65 | 52 | 9.0 | 13.0 | 0.00 | 0.20 | 0.13 | 71 | 1005.2 |
| 20260509112905 | 65 | 26 | 7.0 | 12.0 | 0.00 | 0.20 | 0.13 | 70 | 1005.2 |
| 20260509112405 | 64 | 49 | 4.0 | 10.0 | 0.00 | 0.20 | 0.13 | 74 | 1005.1 |
| 20260509111406 | 63 | 38 | 6.0 | 12.0 | 0.00 | 0.20 | 0.13 | 74 | 1005.1 |
| 20260509110905 | 63 | 46 | 3.0 | 10.0 | 0.00 | 0.20 | 0.13 | 76 | 1005.0 |
| 20260509110405 | 63 | 31 | 2.0 | 9.0 | 0.00 | 0.20 | 0.13 | 77 | 1005.0 |
| 20260509105905 | 63 | 57 | 5.0 | 9.0 | 0.00 | 0.20 | 0.13 | 76 | 1005.0 |
| 20260509105405 | 63 | 24 | 9.0 | 15.0 | 0.00 | 0.20 | 0.13 | 75 | 1004.9 |
| 20260509104905 | 63 | 34 | 2.0 | 9.0 | 0.00 | 0.20 | 0.13 | 76 | 1004.9 |
| 20260509104405 | 63 | 8 | 5.0 | 12.0 | 0.00 | 0.20 | 0.13 | 75 | 1004.9 |
| 20260509103905 | 63 | 13 | 6.0 | 12.0 | 0.00 | 0.20 | 0.13 | 76 | 1004.9 |
| 20260509103405 | 63 | 20 | 7.0 | 13.0 | 0.00 | 0.20 | 0.13 | 76 | 1005.0 |
| 20260509102906 | 63 | 39 | 6.0 | 13.0 | 0.00 | 0.20 | 0.13 | 78 | 1004.9 |
| 20260509102405 | 62 | 30 | 7.0 | 16.0 | 0.00 | 0.20 | 0.13 | 79 | 1005.0 |
| 20260509101405 | 62 | 4 | 3.0 | 8.0 | 0.00 | 0.20 | 0.13 | 80 | 1004.9 |
| 20260509100904 | 62 | 346 | 6.0 | 9.0 | 0.00 | 0.20 | 0.13 | 79 | 1004.9 |
| 20260509095906 | 62 | 14 | 5.0 | 10.0 | 0.00 | 0.20 | 0.13 | 81 | 1004.8 |
| 20260509095405 | 61 | 21 | 2.0 | 12.0 | 0.00 | 0.20 | 0.13 | 83 | 1004.7 |
| 20260509094906 | 61 | 15 | 5.0 | 10.0 | 0.00 | 0.20 | 0.13 | 82 | 1004.7 |
| 20260509094405 | 60 | 37 | 3.0 | 9.0 | 0.00 | 0.20 | 0.13 | 83 | 1004.8 |
| 20260509093905 | 60 | 326 | 5.0 | 12.0 | 0.00 | 0.20 | 0.13 | 83 | 1004.9 |
| 20260509093405 | 60 | 29 | 6.0 | 13.0 | 0.00 | 0.20 | 0.13 | 83 | 1005.0 |
| 20260509092905 | 60 | 17 | 2.0 | 8.0 | 0.00 | 0.20 | 0.13 | 85 | 1005.0 |
| 20260509091905 | 59 | 9 | 5.0 | 9.0 | 0.00 | 0.20 | 0.13 | 85 | 1005.2 |
| 20260509091405 | 59 | 12 | 3.0 | 10.0 | 0.00 | 0.20 | 0.13 | 85 | 1005.2 |
| 20260509090905 | 59 | 20 | 4.0 | 10.0 | 0.00 | 0.20 | 0.13 | 86 | 1005.2 |
| 20260509090405 | 58 | 5 | 5.0 | 7.0 | 0.00 | 0.20 | 0.13 | 86 | 1005.1 |
| 20260509085905 | 58 | 6 | 2.0 | 8.0 | 0.00 | 0.20 | 0.13 | 88 | 1005.1 |
| 20260509085405 | 58 | 19 | 6.0 | 12.0 | 0.00 | 0.20 | 0.13 | 88 | 1005.1 |
| 20260509084905 | 58 | 18 | 5.0 | 9.0 | 0.01 | 0.20 | 0.13 | 89 | 1005.0 |
| 20260509084405 | 58 | 11 | 4.0 | 10.0 | 0.01 | 0.20 | 0.13 | 90 | 1005.0 |
| 20260509083905 | 58 | 12 | 3.0 | 7.0 | 0.01 | 0.20 | 0.13 | 91 | 1005.0 |
| 20260509083405 | 57 | 350 | 5.0 | 12.0 | 0.01 | 0.20 | 0.13 | 92 | 1005.0 |
| 20260509082904 | 57 | 353 | 4.0 | 12.0 | 0.01 | 0.20 | 0.13 | 92 | 1005.1 |
| 20260509082404 | 57 | 301 | 2.0 | 9.0 | 0.01 | 0.20 | 0.13 | 93 | 1005.0 |
| 20260509081905 | 56 | 328 | 2.0 | 8.0 | 0.02 | 0.20 | 0.13 | 93 | 1005.1 |
| 20260509081405 | 56 | 340 | 3.0 | 6.0 | 0.02 | 0.20 | 0.13 | 93 | 1005.1 |
| 20260509080905 | 56 | 307 | 0.0 | 7.0 | 0.02 | 0.20 | 0.13 | 93 | 1005.1 |
| 20260509080404 | 56 | 274 | 2.0 | 9.0 | 0.02 | 0.20 | 0.13 | 93 | 1005.0 |
| 20260509075905 | 56 | 289 | 3.0 | 7.0 | 0.02 | 0.20 | 0.13 | 93 | 1005.2 |
| 20260509075405 | 56 | 325 | 1.0 | 6.0 | 0.04 | 0.20 | 0.13 | 93 | 1005.3 |
| 20260509074405 | 56 | 329 | 3.0 | 6.0 | 0.05 | 0.20 | 0.13 | 92 | 1005.4 |
| 20260509073905 | 56 | 2 | 2.0 | 7.0 | 0.06 | 0.20 | 0.13 | 92 | 1005.3 |
| 20260509073405 | 56 | 312 | 3.0 | 7.0 | 0.06 | 0.20 | 0.13 | 92 | 1005.4 |
| 20260509072405 | 55 | 351 | 3.0 | 9.0 | 0.07 | 0.20 | 0.13 | 92 | 1005.4 |
| 20260509071906 | 55 | 17 | 4.0 | 9.0 | 0.06 | 0.19 | 0.12 | 92 | 1005.4 |
| 20260509071405 | 56 | 21 | 3.0 | 7.0 | 0.07 | 0.19 | 0.12 | 91 | 1005.5 |
| 20260509070904 | 56 | 24 | 1.0 | 7.0 | 0.07 | 0.19 | 0.12 | 91 | 1005.4 |
| 20260509070406 | 56 | 7 | 2.0 | 6.0 | 0.06 | 0.18 | 0.11 | 91 | 1005.4 |
| 20260509065905 | 56 | 11 | 3.0 | 10.0 | 0.06 | 0.18 | 0.11 | 91 | 1005.4 |
| 20260509065405 | 56 | 31 | 4.0 | 10.0 | 0.05 | 0.17 | 0.09 | 90 | 1005.4 |
| 20260509064905 | 56 | 359 | 2.0 | 8.0 | 0.03 | 0.15 | 0.08 | 90 | 1005.4 |
| 20260509064405 | 56 | 18 | 3.0 | 10.0 | 0.03 | 0.15 | 0.08 | 90 | 1005.4 |
| 20260509062905 | 56 | 15 | 5.0 | 9.0 | 0.02 | 0.13 | 0.06 | 90 | 1005.3 |
| 20260509062405 | 56 | 29 | 5.0 | 10.0 | 0.01 | 0.13 | 0.06 | 90 | 1005.2 |
| 20260509060905 | 56 | 43 | 2.0 | 5.0 | 0.00 | 0.12 | 0.05 | 91 | 1004.8 |
| 20260509060405 | 56 | 345 | 1.0 | 5.0 | 0.00 | 0.12 | 0.05 | 91 | 1004.8 |
| 20260509055905 | 56 | 219 | 1.0 | 5.0 | 0.00 | 0.12 | 0.05 | 91 | 1004.7 |
| 20260509055405 | 56 | 353 | 1.0 | 3.0 | 0.00 | 0.12 | 0.05 | 91 | 1004.7 |
| 20260509054906 | 56 | 304 | 0.0 | 2.0 | 0.00 | 0.12 | 0.05 | 91 | 1004.7 |
| 20260509053905 | 56 | 16 | 1.0 | 7.0 | 0.00 | 0.12 | 0.05 | 91 | 1004.8 |
| 20260509053405 | 56 | 343 | 1.0 | 3.0 | 0.00 | 0.12 | 0.05 | 92 | 1004.7 |
| 20260509052905 | 55 | 343 | 2.0 | 5.0 | 0.00 | 0.12 | 0.05 | 92 | 1004.8 |
| 20260509051905 | 55 | 347 | 1.0 | 3.0 | 0.00 | 0.12 | 0.05 | 92 | 1004.9 |
| 20260509051404 | 55 | 355 | 0.0 | 2.0 | 0.00 | 0.12 | 0.05 | 91 | 1005.0 |
| 20260509050904 | 56 | 355 | 0.0 | 3.0 | 0.00 | 0.12 | 0.05 | 91 | 1004.9 |
| 20260509045905 | 56 | 96 | 0.0 | 3.0 | 0.00 | 0.12 | 0.05 | 91 | 1004.9 |
| 20260509045405 | 56 | 347 | 2.0 | 6.0 | 0.00 | 0.12 | 0.05 | 91 | 1005.0 |
| 20260509044904 | 56 | 294 | 2.0 | 10.0 | 0.00 | 0.12 | 0.05 | 91 | 1004.9 |
| 20260509044405 | 56 | 302 | 3.0 | 5.0 | 0.04 | 0.12 | 0.05 | 91 | 1005.0 |
| 20260509043905 | 56 | 306 | 2.0 | 8.0 | 0.05 | 0.12 | 0.05 | 90 | 1005.1 |
| 20260509043405 | 56 | 295 | 3.0 | 8.0 | 0.05 | 0.12 | 0.05 | 90 | 1005.0 |
| 20260509042905 | 56 | 266 | 3.0 | 8.0 | 0.05 | 0.12 | 0.05 | 90 | 1005.1 |
| 20260509041905 | 56 | 260 | 2.0 | 8.0 | 0.05 | 0.12 | 0.05 | 90 | 1005.2 |
| 20260509041405 | 56 | 284 | 2.0 | 5.0 | 0.05 | 0.12 | 0.05 | 89 | 1005.3 |
| 20260509040904 | 56 | 285 | 2.0 | 7.0 | 0.05 | 0.12 | 0.05 | 89 | 1005.4 |
| 20260509040405 | 56 | 296 | 1.0 | 5.0 | 0.05 | 0.12 | 0.05 | 89 | 1005.4 |
| 20260509035905 | 56 | 310 | 0.0 | 3.0 | 0.05 | 0.12 | 0.05 | 89 | 1005.4 |
| 20260509035404 | 56 | 307 | 1.0 | 5.0 | 0.05 | 0.12 | 0.05 | 88 | 1005.5 |
| 20260509034905 | 56 | 311 | 2.0 | 7.0 | 0.05 | 0.12 | 0.05 | 88 | 1005.7 |
| 20260509034404 | 56 | 21 | 3.0 | 6.0 | 0.01 | 0.08 | 0.01 | 87 | 1005.9 |
| 20260509033905 | 56 | 324 | 4.0 | 8.0 | 0.00 | 0.07 | 0.00 | 87 | 1005.8 |
| 20260509033405 | 56 | 10 | 0.0 | 5.0 | 0.00 | 0.07 | 0.00 | 87 | 1005.9 |
| 20260509032905 | 56 | 20 | 3.0 | 8.0 | 0.00 | 0.07 | 0.00 | 87 | 1005.8 |
| 20260509032405 | 56 | 322 | 5.0 | 8.0 | 0.00 | 0.07 | 0.00 | 88 | 1005.9 |
| 20260509031905 | 56 | 11 | 0.0 | 1.0 | 0.00 | 0.07 | 0.00 | 87 | 1006.0 |
| 20260509031406 | 56 | 11 | 2.0 | 5.0 | 0.00 | 0.07 | 0.00 | 87 | 1006.1 |
| 20260509030905 | 56 | 11 | 0.0 | 5.0 | 0.00 | 0.07 | 0.00 | 87 | 1006.2 |
| 20260509030405 | 56 | 11 | 1.0 | 5.0 | 0.00 | 0.07 | 0.00 | 87 | 1006.3 |
| 20260509025905 | 56 | 11 | 2.0 | 5.0 | 0.00 | 0.07 | 0.00 | 87 | 1006.3 |
| 20260509025404 | 56 | 11 | 3.0 | 8.0 | 0.00 | 0.07 | 0.00 | 87 | 1006.3 |
| 20260509024404 | 55 | 352 | 3.0 | 8.0 | 0.00 | 0.07 | 0.00 | 87 | 1006.4 |
| 20260509023905 | 55 | 5 | 2.0 | 6.0 | 0.00 | 0.07 | 0.00 | 87 | 1006.3 |
| 20260509023404 | 55 | 355 | 0.0 | 3.0 | 0.00 | 0.07 | 0.00 | 87 | 1006.4 |
| 20260509022905 | 55 | 26 | 2.0 | 8.0 | 0.00 | 0.07 | 0.00 | 87 | 1006.3 |
| 20260509022405 | 56 | 23 | 1.0 | 9.0 | 0.00 | 0.07 | 0.00 | 87 | 1006.3 |
| 20260509021905 | 56 | 355 | 5.0 | 9.0 | 0.00 | 0.07 | 0.00 | 87 | 1006.5 |
| 20260509021405 | 56 | 21 | 3.0 | 12.0 | 0.00 | 0.07 | 0.00 | 87 | 1006.5 |
| 20260509020906 | 56 | 18 | 3.0 | 8.0 | 0.00 | 0.07 | 0.00 | 87 | 1006.7 |
| 20260509020405 | 56 | 14 | 4.0 | 9.0 | 0.00 | 0.07 | 0.00 | 87 | 1006.7 |
| 20260509015905 | 56 | 0 | 3.0 | 8.0 | 0.00 | 0.07 | 0.00 | 87 | 1006.8 |
| 20260509015405 | 56 | 25 | 4.0 | 6.0 | 0.00 | 0.07 | 0.00 | 87 | 1006.9 |
| 20260509014904 | 56 | 24 | 2.0 | 7.0 | 0.00 | 0.07 | 0.00 | 86 | 1006.9 |
| 20260509014404 | 56 | 26 | 5.0 | 8.0 | 0.00 | 0.07 | 0.00 | 86 | 1007.0 |
| 20260509013905 | 56 | 352 | 2.0 | 7.0 | 0.00 | 0.07 | 0.00 | 86 | 1007.0 |
| 20260509013405 | 56 | 34 | 0.0 | 6.0 | 0.00 | 0.07 | 0.00 | 86 | 1007.1 |
| 20260509012905 | 56 | 10 | 2.0 | 7.0 | 0.00 | 0.07 | 0.00 | 86 | 1007.2 |
| 20260509011905 | 56 | 4 | 3.0 | 8.0 | 0.00 | 0.07 | 0.00 | 86 | 1007.2 |
| 20260509011404 | 56 | 34 | 4.0 | 9.0 | 0.00 | 0.07 | 0.00 | 86 | 1007.3 |
| 20260509005905 | 56 | 22 | 5.0 | 10.0 | 0.00 | 0.07 | 0.00 | 86 | 1007.4 |
| 20260509005405 | 56 | 16 | 4.0 | 9.0 | 0.00 | 0.07 | 0.00 | 86 | 1007.5 |
| 20260509004905 | 57 | 22 | 5.0 | 9.0 | 0.00 | 0.07 | 0.00 | 86 | 1007.6 |
| 20260509004404 | 57 | 16 | 2.0 | 9.0 | 0.00 | 0.07 | 0.00 | 86 | 1007.5 |
| 20260509003404 | 57 | 356 | 6.0 | 12.0 | 0.00 | 0.07 | 0.00 | 87 | 1007.5 |
| 20260509002905 | 57 | 45 | 4.0 | 9.0 | 0.00 | 0.07 | 0.00 | 88 | 1007.6 |
| 20260509002405 | 57 | 353 | 4.0 | 9.0 | 0.00 | 0.07 | 0.00 | 88 | 1007.7 |
| 20260509001404 | 57 | 22 | 7.0 | 12.0 | 0.00 | 0.07 | 0.00 | 88 | 1007.6 |
| 20260509000905 | 57 | 351 | 5.0 | 13.0 | 0.00 | 0.07 | 0.00 | 88 | 1007.7 |
| 20260509000405 | 57 | 4 | 6.0 | 13.0 | 0.00 | 0.07 | 0.00 | 87 | 1007.8 |
| 20260508235404 | 57 | 11 | 6.0 | 13.0 | 0.00 | 0.07 | 0.00 | 88 | 1007.9 |
| 20260508234904 | 57 | 32 | 5.0 | 12.0 | 0.00 | 0.07 | 0.00 | 88 | 1007.8 |
| 20260508233905 | 57 | 20 | 6.0 | 12.0 | 0.00 | 0.07 | 0.00 | 87 | 1007.7 |
| 20260508233405 | 57 | 8 | 6.0 | 12.0 | 0.00 | 0.07 | 0.00 | 87 | 1007.8 |
| 20260508232904 | 57 | 30 | 6.0 | 12.0 | 0.00 | 0.07 | 0.00 | 87 | 1007.8 |
| 20260508232405 | 57 | 15 | 5.0 | 13.0 | 0.00 | 0.07 | 0.00 | 86 | 1007.7 |
| 20260508231905 | 57 | 54 | 5.0 | 12.0 | 0.00 | 0.07 | 0.00 | 86 | 1007.7 |
| 20260508230905 | 57 | 2 | 5.0 | 14.0 | 0.00 | 0.07 | 0.00 | 86 | 1007.5 |
| 20260508230405 | 57 | 16 | 6.0 | 9.0 | 0.00 | 0.07 | 0.00 | 87 | 1007.7 |
| 20260508225904 | 57 | 355 | 5.0 | 9.0 | 0.00 | 0.07 | 0.07 | 88 | 1008.0 |
| 20260508225405 | 57 | 9 | 4.0 | 10.0 | 0.01 | 0.07 | 0.07 | 88 | 1008.0 |
| 20260508224905 | 57 | 332 | 3.0 | 10.0 | 0.01 | 0.07 | 0.07 | 88 | 1007.9 |
| 20260508224405 | 57 | 50 | 3.0 | 8.0 | 0.01 | 0.07 | 0.07 | 89 | 1007.9 |
| 20260508223904 | 57 | 12 | 1.0 | 8.0 | 0.01 | 0.07 | 0.07 | 89 | 1007.6 |
| 20260508223406 | 57 | 304 | 3.0 | 9.0 | 0.01 | 0.07 | 0.07 | 89 | 1007.6 |
| 20260508222905 | 57 | 313 | 1.0 | 6.0 | 0.01 | 0.07 | 0.07 | 89 | 1007.3 |
| 20260508222405 | 57 | 333 | 2.0 | 6.0 | 0.02 | 0.07 | 0.07 | 88 | 1007.3 |
| 20260508221905 | 57 | 28 | 3.0 | 10.0 | 0.02 | 0.07 | 0.07 | 89 | 1007.9 |
| 20260508221404 | 58 | 11 | 4.0 | 8.0 | 0.02 | 0.07 | 0.07 | 89 | 1008.2 |
| 20260508220905 | 58 | 14 | 7.0 | 10.0 | 0.02 | 0.07 | 0.07 | 88 | 1008.3 |
| 20260508220405 | 58 | 20 | 6.0 | 13.0 | 0.02 | 0.07 | 0.07 | 88 | 1008.4 |
| 20260508215404 | 58 | 46 | 4.0 | 7.0 | 0.01 | 0.06 | 0.06 | 89 | 1008.5 |
| 20260508214405 | 58 | 21 | 0.0 | 3.0 | 0.01 | 0.06 | 0.06 | 89 | 1008.7 |
| 20260508213904 | 58 | 21 | 2.0 | 6.0 | 0.01 | 0.06 | 0.06 | 88 | 1008.7 |
| 20260508213404 | 58 | 21 | 4.0 | 8.0 | 0.01 | 0.06 | 0.06 | 88 | 1008.8 |
| 20260508212904 | 58 | 24 | 5.0 | 12.0 | 0.01 | 0.06 | 0.06 | 88 | 1008.7 |
| 20260508212404 | 58 | 13 | 6.0 | 10.0 | 0.00 | 0.06 | 0.06 | 89 | 1008.8 |
| 20260508210404 | 58 | 45 | 5.0 | 8.0 | 0.01 | 0.06 | 0.06 | 88 | 1008.8 |
| 20260508205905 | 58 | 84 | 0.0 | 1.0 | 0.01 | 0.06 | 0.06 | 88 | 1008.7 |
| 20260508204904 | 58 | 84 | 0.0 | 0.0 | 0.01 | 0.06 | 0.06 | 88 | 1008.5 |
| 20260508203904 | 58 | 84 | 0.0 | 0.0 | 0.06 | 0.06 | 0.06 | 87 | 1008.3 |
| 20260508202904 | 58 | 82 | 4.0 | 6.0 | 0.06 | 0.06 | 0.06 | 87 | 1008.1 |
| 20260508201904 | 58 | 39 | 2.0 | 8.0 | 0.06 | 0.06 | 0.06 | 86 | 1008.1 |
| 20260508201405 | 58 | 35 | 2.0 | 7.0 | 0.06 | 0.06 | 0.06 | 85 | 1008.0 |
| 20260508200405 | 59 | 54 | 2.0 | 6.0 | 0.05 | 0.05 | 0.05 | 85 | 1007.8 |
| 20260508195905 | 59 | 44 | 1.0 | 8.0 | 0.05 | 0.05 | 0.05 | 84 | 1007.8 |
| 20260508195405 | 59 | 65 | 2.0 | 5.0 | 0.05 | 0.05 | 0.05 | 82 | 1007.8 |
| 20260508194904 | 59 | 46 | 1.0 | 6.0 | 0.05 | 0.05 | 0.05 | 81 | 1007.8 |
| 20260508194405 | 60 | 37 | 3.0 | 9.0 | 0.04 | 0.04 | 0.04 | 78 | 1007.9 |
| 20260508193905 | 61 | 12 | 7.0 | 18.0 | 0.00 | 0.00 | 0.00 | 75 | 1008.2 |
| 20260508193404 | 63 | 34 | 13.0 | 25.0 | 0.00 | 0.00 | 0.00 | 70 | 1007.9 |
| 20260508192905 | 64 | 58 | 8.0 | 15.0 | 0.00 | 0.00 | 0.00 | 66 | 1007.8 |
| 20260508192405 | 65 | 30 | 5.0 | 6.0 | 0.00 | 0.00 | 0.00 | 62 | 1007.4 |
| 20260508191906 | 65 | 30 | 0.0 | 2.0 | 0.00 | 0.00 | 0.00 | 60 | 1007.2 |
| 20260508191406 | 65 | 30 | 0.0 | 0.0 | 0.00 | 0.00 | 0.00 | 59 | 1007.0 |
| 20260508190906 | 65 | 30 | 0.0 | 0.0 | 0.00 | 0.00 | 0.00 | 59 | 1007.0 |
| 20260508190405 | 65 | 30 | 0.0 | 0.0 | 0.00 | 0.00 | 0.00 | 59 | 1006.9 |
| 20260508185906 | 65 | 30 | 0.0 | 0.0 | 0.00 | 0.00 | 0.00 | 58 | 1006.9 |
| 20260508184406 | 65 | 30 | 0.0 | 0.0 | 0.00 | 0.00 | 0.00 | 60 | 1006.9 |
| 20260508183906 | 65 | 29 | 0.0 | 1.0 | 0.00 | 0.00 | 0.00 | 59 | 1007.1 |